This demonstration page uses our WeatherBlox Daily Observations layout. Learn more.

38.89511, -77.03637

Hourly Observations for February 28, 2015

Temp ( °F °C ) Dew Point ( °F °C ) Humidity (%) Winds ( mph kmh ) Pressure ( in mb ) Visibility ( mi km ) Precip ( " mm )
12:52 am 00:52 Partly Cloudy 25 -4 3 -16 39 39 N 9 15 30.71 1040 10 16.09344 0 0
1:52 am 01:52 Mostly Cloudy 23 -5 3 -16 42 42 N 7 11 30.71 1040 10 16.09344 0 0
2:52 am 02:52 Mostly Cloudy 21 -6 3 -16 45 45 N 9 15 30.74 1041 10 16.09344 0 0
3:52 am 03:52 Mostly Clear 21 -6 3 -16 45 45 N 7 11 30.74 1041 10 16.09344 0 0
4:52 am 04:52 Mostly Clear 21 -6 3 -16 45 45 N 7 11 30.77 1042 10 16.09344 0 0
5:52 am 05:52 Mostly Clear 19 -7 1 -17 45 45 N 8 13 30.8 1043 10 16.09344 0 0
6:52 am 06:52 Partly Cloudy 19 -7 3 -16 49 49 N 7 11 30.83 1044 10 16.09344 0 0
7:52 am 07:52 Mostly Cloudy 21 -6 0 -18 38 38 NNE 8 13 30.86 1045 10 16.09344 0 0
8:52 am 08:52 Mostly Cloudy 23 -5 0 -18 36 36 N 9 15 30.86 1045 10 16.09344 0 0
9:52 am 09:52 Mostly Cloudy 25 -4 0 -18 33 33 Calm 30.89 1046 10 16.09344 0 0
10:52 am 10:52 Mostly Cloudy 27 -3 1 -17 33 33 ENE 3 6 30.89 1046 10 16.09344 0 0
11:52 am 11:52 Mostly Cloudy 28 -2 3 -16 34 34 ENE 5 7 30.86 1045 10 16.09344 0 0
12:52 pm 12:52 Mostly Cloudy 30 -1 5 -15 34 34 ENE 3 6 30.83 1044 10 16.09344 0 0
1:52 pm 13:52 Mostly Cloudy 28 -2 1 -17 31 31 ESE 3 6 30.8 1043 10 16.09344 0 0
2:52 pm 14:52 Mostly Cloudy 30 -1 1 -17 29 29 SSE 3 6 30.77 1042 10 16.09344 0 0
3:52 pm 15:52 Partly Cloudy 32 0 3 -16 29 29 SE 3 6 30.77 1042 10 16.09344 0 0
4:52 pm 16:52 Mostly Sunny 32 0 7 -14 34 34 ESE 3 6 30.77 1042 10 16.09344 0 0
5:52 pm 17:52 Mostly Sunny 30 -1 3 -16 31 31 S 3 6 30.77 1042 10 16.09344 0 0
6:52 pm 18:52 Mostly Clear 30 -1 9 -13 40 40 S 3 6 30.77 1042 10 16.09344 0 0
7:52 pm 19:52 Mostly Clear 28 -2 10 -12 47 47 SE 6 9 30.77 1042 10 16.09344 0 0
8:52 pm 20:52 Clear 27 -3 9 -13 46 46 Calm 30.8 1043 10 16.09344 0 0
9:52 pm 21:52 Clear 27 -3 10 -12 50 50 SE 3 6 30.8 1043 10 16.09344 0 0
10:52 pm 22:52 Mostly Clear 25 -4 9 -13 50 50 SSE 5 7 30.77 1042 10 16.09344 0 0
11:52 pm 23:52 Partly Cloudy 25 -4 10 -12 54 54 SE 5 7 30.74 1041 10 16.09344 0 0

Powered by AerisWeather